Regional Weather Roundup
Issued by NWS

Home | Current Version | Previous Version | Text Only | Print | Product List | Glossary Off
Versions: 1 2 3 4 5 6 7 8 9 10 11 12 13 14 15 16 17 18 19 20 21 22 23 24 25 26 27 28 29 30 31 32 33 34 35 36 37 38 39 40 41 42 43 44 45 46 47 48 49 50

434
ASUS45 KCYS 240810
RWRWY

WYOMING REGIONAL WEATHER ROUNDUP
NATIONAL WEATHER SERVICE CHEYENNE WY
200 AM MDT FRI MAR 24 2017

NOTE:  "FAIR" INDICATES FEW OR NO CLOUDS BELOW 12,000 FEET
WITH NO SIGNIFICANT WEATHER AND/OR OBSTRUCTIONS TO VISIBILITY.

WYZ001-240900-
YELLOWSTONE NATIONAL PARK

CITY           SKY/WX    TMP DP  RH WIND       PRES   REMARKS
LK YELLOWSTONE   N/A     20  18  92 CALM      30.10R
W YELLOWSTONE  NOT AVBL

$$
WYZ002>013-054>058-071-098>099-240900-
NORTHERN WYOMING

CITY           SKY/WX    TMP DP  RH WIND       PRES   REMARKS
JACKSON        FAIR      27  25  93 NE6       30.08R WCI  20
CODY           FAIR      40  32  73 SW6       30.04R
GREYBULL       FAIR      34  32  92 CALM      30.03R
WORLAND        FAIR      34  34 100 SE7       30.03R WCI  28
SHERIDAN       FAIR      34  30  85 CALM      30.01R
BUFFALO        FAIR      35  27  72 W6        30.02R WCI  30
GILLETTE       FAIR      34  33  96 SW3       30.00R
HULETT         FAIR      34  34 100 S6        30.01R WCI  29
NEWCASTLE      CLOUDY    37  32  81 NW9       29.99R WCI  31

$$
WYZ014>020-022>026-101>103-240900-
CENTRAL WYOMING

CITY           SKY/WX    TMP DP  RH WIND       PRES   REMARKS
BIG PINEY      FAIR      28  24  85 E8        30.07R WCI  20
PINEDALE       FAIR      28  27  93 W7        30.08R WCI  21
DUBOIS         FAIR      28  27  93 NW7       30.06R WCI  21
LANDER         MOCLDY    38  34  85 SE5       30.03R WCI  34
RIVERTON       MOCLDY    37  36  96 S3        30.04R
CASPER         CLOUDY    34  33  96 CALM      30.03S
DOUGLAS        CLOUDY    36  33  89 NW9       30.01R WCI  29

$$
WYZ021-027>030-104>119-240900-
SOUTHERN WYOMING

CITY           SKY/WX    TMP DP  RH WIND       PRES   REMARKS
EVANSTON       FAIR      29  23  78 W3        30.11R
KEMMERER         N/A     32  28  86 W8        30.10R WCI  25
FORT BRIDGER   CLOUDY    35  33  92 W15       30.12R WCI  25
ROCK SPRINGS   CLOUDY    37  30  75 CALM      30.06R
DIXON            N/A     36  30  80 N10       30.00R WCI  28
RAWLINS        CLOUDY    35  28  75 NE13      30.02R WCI  26
SARATOGA       CLOUDY    34  28  80 N15G21    30.00R WCI  24
LARAMIE        CLOUDY    32  26  78 NW23      29.90F WCI  19
CHEYENNE       CLOUDY    35  30  82 N32G46    29.87R WCI  21
TORRINGTON     CLOUDY    42  36  79 N17       29.91R
PINE BLUFFS    CLOUDY    36  36 100 N22G31    29.90R WCI  24

$$




USA.gov is the U.S. government's official web portal to all federal, state and local government web resources and services.